Estación Meteorológica Peña el Pijo (Robertgarden) [ 07/07/20 11:04:36 CEST ]

Fecha Hora Presion(HPa) Temp (°C) Humedad % Rocio (°C) Viento ( m/s) Direccion Lluvia 1Hora(mm) Lluvia 24H(mm) LLuvia Total(mm)
2020-Mar-07 01:08:42 1011.300 - - - - N     39.88
2020-Mar-07 02:14:05 1011.500 - - - - N     39.88
2020-Mar-07 03:09:36 1011.800 - - - - N     39.88
2020-Mar-07 04:09:31 1011.800 - - - - N     39.88
2020-Mar-07 05:09:35 1011.500 - - - - N     39.88
2020-Mar-07 06:09:25 1011.900 - - - - N     39.88
2020-Mar-07 07:08:55 1012.700 - - - - N     39.88
2020-Mar-07 08:08:59 1012.800 - - - - N     39.88
2020-Mar-07 09:09:11 1013.200 - - - - N     39.88
2020-Mar-07 10:09:52 1013.700 - - - - N     39.88
2020-Mar-07 11:09:42 1013.600 - - - - N     39.88
2020-Mar-07 12:09:03 1013.500 - - - - N     39.88
2020-Mar-07 13:09:11 1012.700 - - - - N     39.88
2020-Mar-07 14:08:57 1012.100 - - - - N     39.88
2020-Mar-07 15:09:03 1011.400 - - - - N     39.88
2020-Mar-07 16:09:22 1011.400 - - - - N     39.88
2020-Mar-07 17:08:50 1011.700 - - - - N     39.88
2020-Mar-07 18:09:04 1012.000 - - - - N     39.88
2020-Mar-07 19:09:03 1013.000 - - - - N     39.88
2020-Mar-07 20:09:27 1013.500 - - - - N     39.88
2020-Mar-07 21:09:38 1014.300 - - - - N     39.88
2020-Mar-07 22:09:16 1014.700 - - - - N     39.88
2020-Mar-07 23:08:50 1015.200 - - - - N     39.88

Temperatura Máxima:    Temperatura Mínima:
Presión Máxima:1015.200 Hpa    Presión Mínima:1011.300 Hpa


Volver